Skip Page Navigation
NASA JPL Caltech
NASA Logo - Jet Propulsion Laboratory + View the NASA Portal
+ Near-Earth Object (NEO) Program
Search JPL
JPL Home Earth Solar System Stars & Galaxies Technology
JPL Solar System Dynamics
BODIES ORBITS EPHEMERIDES TOOLS PHYSICAL DATA DISCOVERY FAQ SITE MAP
JPL Small-Body Database Browser
Search: [ help ]  
(2008 XC1)
Classification: Apollo [NEO]          SPK-ID: 3441094
Ephemeris | Orbit Diagram | Orbital Elements | Physical Parameters | Close-Approach Data ]

[ hide orbit diagram ]
Orbit Diagram
Note: Make sure you have Java enabled on your browser to see the applet. This applet is provided as a 3D orbit visualization tool. The applet was implemented using 2-body methods, and hence should not be used for determining accurate long-term trajectories (over several years or decades) or planetary encounter circumstances. For accurate long-term ephemerides, please instead use our Horizons system.
Orbit Viewer

Additional Notes: the orbits shown in the applet are color coded. The planets are white lines, and the asteroid/comet is a blue line. The bright white line indicates the portion of the orbit that is above the ecliptic plane, and the darker portion is below the ecliptic plane. Likewise for the asteroid/comet orbit, the light blue indicates the portion above the ecliptic plane, and the dark blue the portion below the ecliptic plane.

Orbit Viewer applet originally written and kindly provided by Osamu Ajiki (AstroArts), and further modified by Ron Baalke (JPL).


Orbital Elements at Epoch 2456400.5 (2013-Apr-18.0) TDB
Reference: JPL 13 (heliocentric ecliptic J2000)
 Element Value Uncertainty (1-sigma)   Units 
e .5780079238744069 0.00032686  
a 2.054526415058191 0.0014913 AU
q .8669938673452782 4.2218e-05 AU
i 4.476515549272367 0.0018537 deg
node 86.35221726928044 0.00073869 deg
peri 43.64903490751161 0.00021484 deg
M 159.8522768595203 0.5674 deg
tp 2455922.880173320318
(2011-Dec-27.38017332)
1.1753 JED
period 1075.637713661037
2.94
1.1712
0.003207
d
yr
n .3346851783159452 0.00036441 deg/d
Q 3.242058962771105 0.0023533 AU
  Orbit Determination Parameters
   # obs. used (total)      137  
   data-arc span      8 days  
   first obs. used      2008-12-03  
   last obs. used      2008-12-11  
   planetary ephem.      DE405  
   SB-pert. ephem.      SB405-CPV-2  
   condition code      7  
   fit RMS      .69273  
   data source      ORB  
   producer      Otto Matic  
   solution date      2011-Sep-14 20:37:13  

Additional Information
 Earth MOID = .00514994 AU 
 T_jup = 3.555 
[ show covariance matrix ]

Ephemeris | Orbit Diagram | Orbital Elements | Physical Parameters | Close-Approach Data ]

Physical Parameter Table
Parameter Symbol Value Units Sigma Reference Notes
absolute magnitude H 23.66 mag .3691 13 autocmod 2.5a
rotation period rot_per 0.201 h n/a Asteroid Lightcurve DataBase (Rev. 2013-May-01) Incomplete or inconclusive result.
Published Reference List:
[Hergenrother, C.W.; Kwiatkowski, T.; Kyrszczynska, A.; Pretka-Ziomek, H.; et al. (2012) ACM 2012, #6484.]

[ show close-approach data ]
Ephemeris | Orbit Diagram | Orbital Elements | Physical Parameters | Close-Approach Data ]
ABOUT SSD CREDITS/AWARDS PRIVACY/COPYRIGHT GLOSSARY LINKS
FirstGov 2013-May-21 12:32 UT
(server date/time)  
NASA Home Page
Site Manager:   Donald K. Yeomans
Webmaster  Alan B. Chamberlin